SCP
0 0 0 0 0 0 0 0 0 0 0 0 0 0 0 0 0 0 0 0 0 0 0 0 0 0 0 0 0 0 0 0 1 1 1 1 1 1
0 0 0 0 0 0 0 0 0 0 0 0 0 0 0 0 0 0 0 0 0 0 0 0 0 0 0 0 0 0 0 0 0 1 1 1 1 1
0 0 0 0 0 0 0 0 0 0 0 0 0 0 0 0 0 0 0 0 0 0 0 0 0 0 0 0 0 0 0 0 0 1 1 1 1 1
0 0 0 0 0 0 0 0 0 0 0 0 0 0 0 0 0 0 0 0 0 0 0 0 0 0 0 0 0 0 0 0 0 0 1 1 1 1
0 0 0 0 0 0 0 0 0 0 0 0 0 0 0 0 0 0 0 0 0 0 0 0 0 0 0 0 0 0 0 0 0 0 0 1 1 1
0 0 0 0 0 0 0 0 0 0 0 0 0 0 0 0 0 0 0 0 0 0 0 0 0 0 0 0 0 0 0 0 0 0 0 0 0 0
0 0 0 0 0 0 0 0 0 0 0 0 0 0 0 0 0 0 0 0 0 0 0 0 0 0 0 0 0 0 0 0 0 0 0 0 0 0
0 0 0 0 0 0 0 0 0 0 0 0 0 0 0 0 0 0 0 0 0 0 0 0 0 0 0 0 0 0 0 0 0 0 0 0 0 0
0 0 0 0 0 0 0 0 0 0 0 0 0 0 0 0 0 0 0 0 0 0 0 0 0 0 0 0 0 0 0 0 0 0 0 0 0 0
0 0 0 0 0 0 0 0 0 0 0 0 0 0 0 0 0 0 0 0 0 0 0 0 0 0 0 0 0 0 0 0 0 0 0 0 0 0
0 0 0 0 0 0 0 0 0 0 0 0 0 0 0 0 0 0 0 0 0 0 0 0 0 0 0 0 0 0 0 0 0 0 0 0 0 0
0 0 0 0 0 0 0 0 0 0 0 0 0 0 0 0 0 0 0 0 0 0 0 0 0 0 0 0 0 0 0 0 0 0 0 0 0 0
0 0 0 0 0 0 0 0 0 0 0 0 0 0 0 0 0 0 0 0 0 0 0 0 0 0 0 0 0 0 0 0 0 0 0 0 0 0
0 0 0 0 0 0 0 0 0 0 0 0 0 0 0 0 0 0 0 0 0 0 0 0 0 0 0 0 0 0 0 0 0 0 0 0 0 0
0 0 0 0 0 0 0 0 0 0 0 0 0 0 0 0 0 0 0 0 0 0 0 0 0 0 0 0 0 0 0 0 0 0 0 0 0 0
0 0 0 0 0 0 0 0 0 0 0 0 0 0 0 0 0 0 0 0 0 0 0 0 0 0 0 0 0 0 0 0 0 0 0 0 0 0
0 0 0 0 0 0 0 0 0 0 0 0 0 0 0 0 0 0 0 0 0 0 0 0 0 0 0 0 0 0 0 0 0 0 0 0 0 0
0 0 0 0 0 0 0 0 0 0 0 0 0 0 0 0 0 0 0 0 0 0 0 0 0 0 0 0 0 0 0 0 0 0 0 0 0 0
0 0 0 0 0 0 0 0 0 0 0 0 0 0 0 0 0 0 0 0 0 0 0 0 0 0 0 0 0 0 0 0 0 0 0 0 0 0
0 0 0 0 0 0 0 0 0 0 0 0 0 0 0 0 0 0 0 0 0 0 0 0 0 0 0 0 0 0 0 0 0 0 0 0 0 0
0 0 0 0 0 0 0 0 0 0 0 0 0 0 0 0 0 0 0 0 0 0 0 0 0 0 0 0 0 0 0 0 0 0 0 0 0 0
0 0 0 0 0 0 0 0 0 0 0 0 0 0 0 0 0 0 0 0 0 0 0 0 0 0 0 0 0 0 0 0 0 0 0 0 0 0
0 0 0 0 0 0 0 0 0 0 0 0 0 0 0 0 0 0 0 0 0 0 0 0 0 0 0 0 0 0 0 0 0 0 0 0 0 0
Wind_Speed
2 2 2 1 1 1 1 2 2 2 3 2 1 1 1 1 2 1 1 4 5 5 6 6 7 7 7 7 8 8 8 8 8 9 10 11 12 12
2 2 2 2 1 1 2 2 2 3 3 2 2 1 1 1 3 1 2 4 5 5 6 6 6 7 7 7 8 9 8 8 9 10 10 11 11 12
2 2 3 2 2 2 2 2 2 2 3 3 1 1 1 1 2 1 1 2 2 5 6 7 7 7 7 7 8 9 9 8 9 10 11 11 12 12
3 3 3 2 3 2 2 3 3 3 3 4 2 1 2 1 1 1 2 2 2 5 6 6 7 7 7 8 8 8 8 8 9 10 10 11 11 12
3 3 3 3 3 2 3 3 2 2 2 3 2 1 1 1 1 1 1 2 3 4 5 6 6 7 7 8 8 9 8 9 9 10 10 10 11 12
2 2 3 3 4 3 3 3 3 3 2 2 2 2 1 1 1 1 2 1 2 3 4 4 6 7 8 8 9 9 9 9 10 9 10 10 11 11
2 2 3 4 4 4 3 3 3 3 2 2 2 2 2 1 1 1 2 2 2 2 2 2 3 3 4 6 8 8 8 9 9 9 10 10 11 11
2 2 3 3 4 5 5 5 5 4 4 3 3 3 3 2 2 1 2 2 3 1 2 4 2 3 3 3 7 9 9 9 9 10 11 11 11 11
2 2 2 2 3 2 3 4 4 5 5 4 4 4 4 3 2 2 3 3 3 2 2 4 2 4 4 5 9 9 9 9 9 10 10 11 11 11
2 2 2 2 3 3 3 2 3 3 4 3 4 4 4 4 4 3 3 3 3 2 2 3 3 3 4 4 7 8 8 9 9 10 10 10 10 10
2 2 2 3 4 4 3 3 3 3 4 4 4 4 4 4 2 1 1 1 3 3 1 2 2 3 3 3 4 7 8 8 10 10 10 10 10 9
2 2 3 3 4 4 3 3 4 3 2 2 2 2 1 2 3 2 2 2 3 3 1 1 2 2 3 2 2 3 4 7 9 10 10 10 10 5
2 2 1 3 4 4 3 2 4 3 2 1 1 1 1 1 1 1 2 3 3 3 2 1 2 2 3 4 3 3 3 3 4 6 8 9 10 6
2 2 2 4 5 5 3 3 4 2 1 1 1 1 1 1 1 1 2 2 3 4 4 3 2 2 3 4 4 3 3 3 3 4 4 7 8 8
2 3 4 4 4 3 3 4 2 0 1 1 1 1 1 2 1 1 1 2 2 3 3 3 3 3 3 4 4 3 4 4 3 3 3 4 4 3
2 3 4 4 3 3 3 2 1 1 1 1 1 1 1 1 1 1 1 1 2 2 2 2 3 3 3 4 4 4 3 3 4 4 4 4 3 3
1 1 1 1 1 1 1 1 1 1 1 1 1 1 1 1 1 1 1 1 2 2 2 2 2 2 3 3 3 4 3 3 3 3 4 4 4 3
2 1 1 1 1 2 2 2 1 1 1 1 1 1 1 1 2 2 1 1 2 2 2 2 2 2 2 2 3 3 3 3 3 3 3 4 4 3
2 1 1 1 1 1 1 1 2 2 1 1 1 1 1 1 1 1 1 1 2 2 2 2 2 1 3 4 3 3 2 3 3 3 3 3 4 4
2 1 1 1 1 1 1 1 2 2 1 1 1 1 1 1 1 2 2 2 2 2 2 2 2 2 2 3 3 3 4 3 3 3 3 3 3 5
2 2 2 2 2 2 2 2 1 1 1 1 1 1 1 1 2 2 2 3 3 2 3 3 3 3 2 1 2 3 3 4 4 3 3 3 3 3
2 2 2 2 2 2 2 2 2 2 1 1 1 1 1 1 2 2 2 2 2 2 2 2 2 2 1 1 2 3 3 4 4 5 4 3 2 2
2 2 2 2 2 2 2 2 2 2 2 2 2 2 1 1 2 2 2 2 2 2 2 2 2 1 1 1 1 2 4 4 3 3 4 5 6 5
Wind_Direction
230 226 228 233 216 212 196 188 184 235 254 239 246 255 267 264 300 296 291 306 310 308 305 303 301 299 298 300 304 300 300 304 304 303 302 301 302 304
232 221 229 226 223 212 201 211 206 209 247 243 232 248 257 293 319 319 279 315 316 309 307 306 305 303 300 302 302 298 297 298 298 299 301 303 303 304
243 231 238 228 224 222 206 207 213 207 241 271 262 277 251 260 308 300 283 277 289 308 309 308 308 304 300 302 304 303 300 299 299 299 301 303 304 305
238 234 240 228 228 225 208 211 220 213 216 255 271 280 264 248 260 287 312 312 296 304 307 306 305 305 305 304 308 309 306 304 302 301 303 304 305 306
231 230 232 222 225 228 218 213 220 222 208 219 255 269 276 290 297 292 294 293 302 305 307 302 305 307 306 306 306 306 306 304 302 301 302 303 305 306
229 229 230 224 223 222 226 220 212 213 214 214 237 255 263 269 253 271 300 290 298 303 309 310 310 311 310 307 305 305 303 302 301 301 302 304 304 305
245 239 237 232 230 228 232 222 211 209 215 220 233 247 248 250 260 274 285 300 291 278 299 300 301 295 298 299 303 302 299 297 297 299 300 301 301 302
241 248 247 246 251 255 263 254 232 218 216 218 231 231 242 241 264 266 284 299 294 287 301 294 286 284 286 280 296 302 301 299 298 297 298 299 300 300
238 241 257 262 263 247 270 275 270 265 249 230 228 233 234 226 229 246 252 269 273 270 288 284 281 278 282 288 298 300 303 305 305 303 301 300 299 301
253 240 245 264 257 237 226 242 253 259 258 243 225 231 238 229 222 237 251 282 277 270 254 273 286 281 291 288 298 305 311 312 312 310 309 307 307 306
271 255 249 253 260 252 232 236 255 265 275 271 266 257 259 267 264 218 239 278 289 279 243 255 282 298 292 282 295 309 314 315 316 314 313 313 312 311
292 279 268 258 264 260 233 226 244 255 251 280 300 305 274 271 281 230 215 244 278 279 235 254 278 314 306 285 284 304 307 308 314 316 314 313 314 312
287 287 281 289 291 289 281 242 247 257 231 226 243 267 275 266 277 264 232 228 246 258 248 245 265 275 272 293 298 289 292 301 307 306 308 311 310 308
283 285 283 291 296 299 293 286 290 297 203 206 242 275 283 280 275 276 269 256 249 252 249 244 252 260 274 284 286 298 300 297 301 300 302 313 312 310
279 284 299 310 319 325 323 319 319 263 219 234 249 265 258 260 271 292 294 285 286 279 263 249 239 252 256 262 275 288 304 303 299 303 312 313 309 309
316 314 325 335 339 338 339 345 346 254 233 242 258 265 277 277 271 273 281 297 306 307 288 264 248 246 257 261 264 278 283 288 304 307 307 306 305 298
321 336 348 346 344 343 340 333 333 339 317 272 265 283 292 293 294 293 284 292 283 291 309 317 305 281 263 258 262 269 280 285 288 302 311 311 309 304
356 4 352 350 344 340 333 332 336 331 314 296 279 268 273 283 297 305 302 286 284 287 293 305 326 334 328 294 248 261 272 282 297 305 304 303 309 315
26 11 347 336 334 331 324 323 321 317 311 299 294 289 283 285 290 299 304 302 296 295 295 293 301 305 309 307 300 272 273 299 309 309 305 301 302 310
16 354 333 331 332 326 320 318 315 317 318 313 307 308 308 299 292 292 293 291 293 299 301 298 284 273 273 279 286 297 297 291 297 301 303 306 298 302
357 352 344 338 333 326 319 312 304 303 309 312 309 307 298 291 288 290 290 294 298 293 294 293 286 294 288 278 289 302 312 309 302 295 299 307 312 325
346 338 335 332 327 319 313 310 313 315 316 313 308 303 292 283 282 286 286 289 292 291 293 298 307 314 300 275 292 301 310 321 326 327 319 308 307 313
336 332 328 328 325 320 319 322 322 320 321 315 306 298 293 288 283 282 284 286 289 296 308 316 329 332 315 282 288 302 314 323 330 340 336 336 329 315